Decherd, TN

1:29 AM CST on January 19, 2017 (GMT -0600)
Winchester Municipal

Weather History for KBGF - November, 2013

Change the Weather History Date:

Wednesday, November 13, 2013

  Actual Average (KTHA) Record (KTHA)
Temperature  
Mean Temperature 30 °F -  
Max Temperature 44 °F 60 °F 64 °F (2016)
Min Temperature 17 °F 35 °F 19 °F (2013)
Degree Days  
Heating Degree Days 34    
Moisture  
Dew Point 17 °F    
Average Humidity 61    
Maximum Humidity 93    
Minimum Humidity 31    
Precipitation  
Precipitation 0.00 in - - ()
Sea Level Pressure  
Sea Level Pressure 30.55 in    
Wind  
Wind Speed 4 mph (NNE)    
Max Wind Speed 10 mph    
Max Gust Speed -    
Visibility 9 miles    
Events      
Averages and records for this station are not official NWS values.
T = Trace of Precipitation, MM = Missing Value Source: NWS Daily Summary

Daily Weather History Graph

Daily Weather History Graph

Search for Another Location

Airport or City:

Trip Planner

Search our weather history database for the weather conditions in past years. The results will help you decide how hot, cold, wet, or windy it might be!

Date:

Astronomy

Nov. 13, 2013 Rise Set
Actual Time 7:17 AM EST 5:39 PM EST
Civil Twilight 6:50 AM EST 6:06 PM EST
Nautical Twilight 6:19 AM EST 6:36 PM EST
Astronomical Twilight 5:49 AM EST 7:06 PM EST
Moon 3:19 PM EST (11/13) 3:18 AM EST (11/13)
Length of Visible Light 11h 15m
Length of Day
10h 22m
Waxing Gibbous, 84% of the Moon is Illuminated
Nov 13
Waxing Gibbous
Nov 17
Full
Nov 25
Last Quarter
Dec 2
New
Dec 9
First Quarter

Hourly Weather History & Observations

Time (EST) Temp. Windchill Dew Point Humidity Pressure Visibility Wind Dir Wind Speed Gust Speed Precip Events Conditions
12:35 AM 26.6 °F 20.0 °F 15.8 °F 64% 30.56 in 10.0 mi NNE 5.8 mph - N/A   Clear
12:55 AM 26.6 °F 21.2 °F 15.8 °F 64% 30.56 in 10.0 mi NNE 4.6 mph - N/A   Clear
1:15 AM 26.6 °F 19.1 °F 15.8 °F 64% 30.56 in 10.0 mi NNE 6.9 mph - N/A   Clear
1:35 AM 26.6 °F 20.0 °F 15.8 °F 64% 30.56 in 10.0 mi NNE 5.8 mph - N/A   Clear
1:55 AM 24.8 °F 19.1 °F 15.8 °F 69% 30.56 in 10.0 mi NNE 4.6 mph - N/A   Clear
2:15 AM 24.8 °F 20.5 °F 15.8 °F 69% 30.56 in 10.0 mi NNE 3.5 mph - N/A   Clear
2:35 AM 23.0 °F 18.4 °F 15.8 °F 74% 30.56 in 10.0 mi NNE 3.5 mph - N/A   Clear
2:55 AM 24.8 °F 20.5 °F 15.8 °F 69% 30.56 in 10.0 mi NNE 3.5 mph - N/A   Clear
3:15 AM 24.8 °F 19.1 °F 15.8 °F 69% 30.56 in 10.0 mi North 4.6 mph - N/A   Clear
3:35 AM 24.8 °F 19.1 °F 15.8 °F 69% 30.56 in 10.0 mi North 4.6 mph - N/A   Clear
3:55 AM 23.0 °F - 15.8 °F 74% 30.56 in 10.0 mi Calm Calm - N/A   Clear
4:15 AM 21.2 °F - 15.8 °F 80% 30.56 in 10.0 mi Calm Calm - N/A   Clear
4:35 AM 21.2 °F - 15.8 °F 80% 30.56 in 10.0 mi Calm Calm - N/A   Clear
4:55 AM 21.2 °F 16.4 °F 15.8 °F 80% 30.56 in 10.0 mi North 3.5 mph - N/A   Clear
5:15 AM 23.0 °F - 15.8 °F 74% 30.56 in 10.0 mi Calm Calm - N/A   Clear
5:35 AM 23.0 °F 17.0 °F 15.8 °F 74% 30.57 in 10.0 mi North 4.6 mph - N/A   Clear
5:55 AM 23.0 °F 17.0 °F 15.8 °F 74% 30.58 in 10.0 mi North 4.6 mph - N/A   Clear
6:15 AM 24.8 °F 19.1 °F 17.6 °F 74% 30.60 in 10.0 mi North 4.6 mph - N/A   Clear
6:35 AM 21.2 °F - 17.6 °F 86% 30.60 in 10.0 mi Calm Calm - N/A   Clear
6:55 AM 19.4 °F - 15.8 °F 86% 30.61 in 10.0 mi Calm Calm - N/A   Clear
7:15 AM 17.6 °F - 15.8 °F 93% 30.62 in 10.0 mi Calm Calm - N/A   Clear
7:35 AM 19.4 °F - 15.8 °F 86% 30.62 in 10.0 mi Calm Calm - N/A   Clear
7:55 AM 21.2 °F - 17.6 °F 86% 30.64 in 10.0 mi Calm Calm - N/A   Clear
8:15 AM 24.8 °F 19.1 °F 17.6 °F 74% 30.65 in 10.0 mi NNE 4.6 mph - N/A   Clear
8:35 AM 26.6 °F 20.0 °F 17.6 °F 69% 30.66 in 10.0 mi NNE 5.8 mph - N/A   Clear
8:55 AM 26.6 °F 20.0 °F 19.4 °F 74% 30.66 in 10.0 mi NE 5.8 mph - N/A   Clear
9:15 AM 28.4 °F 22.2 °F 19.4 °F 69% 30.65 in 10.0 mi NNE 5.8 mph - N/A   Clear
9:35 AM 30.2 °F 21.9 °F 19.4 °F 64% 30.66 in 10.0 mi NE 9.2 mph - N/A   Clear
9:55 AM 30.2 °F 21.9 °F 19.4 °F 64% 30.65 in 10.0 mi NE 9.2 mph - N/A   Clear
10:15 AM 32.0 °F 23.6 °F 17.6 °F 55% 30.65 in 10.0 mi NNE 10.4 mph - N/A   Clear
10:35 AM 33.8 °F 27.0 °F 17.6 °F 52% 30.65 in 10.0 mi NNE 8.1 mph - N/A   Clear
10:55 AM 35.6 °F 28.6 °F 17.6 °F 48% 30.64 in 10.0 mi NE 9.2 mph - N/A   Clear
11:15 AM 37.4 °F 30.8 °F 17.6 °F 45% 30.63 in 10.0 mi NE 9.2 mph - N/A   Clear
11:35 AM 37.4 °F 32.8 °F 15.8 °F 41% 30.63 in 10.0 mi NE 5.8 mph - N/A   Clear
11:55 AM 37.4 °F 33.8 °F 17.6 °F 45% 30.62 in 10.0 mi Variable 4.6 mph - N/A   Clear
12:15 PM 39.2 °F 35.0 °F 15.8 °F 39% 30.60 in 10.0 mi North 5.8 mph - N/A   Clear
12:35 PM 39.2 °F 35.0 °F 17.6 °F 42% 30.59 in 10.0 mi Variable 5.8 mph - N/A   Clear
12:55 PM 39.2 °F 35.0 °F 15.8 °F 39% 30.57 in 10.0 mi NE 5.8 mph - N/A   Clear
1:15 PM 41.0 °F 38.0 °F 15.8 °F 36% 30.56 in 10.0 mi NNE 4.6 mph - N/A   Clear
1:35 PM 42.8 °F - 15.8 °F 34% 30.55 in 10.0 mi Calm Calm - N/A   Clear
1:55 PM 42.8 °F 41.1 °F 15.8 °F 34% 30.54 in 10.0 mi Variable 3.5 mph - N/A   Clear
2:15 PM 44.6 °F 42.2 °F 15.8 °F 31% 30.53 in 10.0 mi North 4.6 mph - N/A   Clear
2:35 PM 42.8 °F 38.6 °F 15.8 °F 34% 30.53 in 9.0 mi WNW 6.9 mph - N/A   Clear
2:55 PM 44.6 °F 43.1 °F 15.8 °F 31% 30.52 in 10.0 mi NNE 3.5 mph - N/A   Clear
3:15 PM 44.6 °F 41.4 °F 15.8 °F 31% 30.51 in 10.0 mi North 5.8 mph - N/A   Clear
3:35 PM 44.6 °F 43.1 °F 15.8 °F 31% 30.51 in 10.0 mi NW 3.5 mph - N/A   Clear
3:55 PM 44.6 °F - 15.8 °F 31% 30.51 in 10.0 mi Calm Calm - N/A   Clear
4:15 PM 44.6 °F 41.4 °F 15.8 °F 31% 30.51 in 10.0 mi NNE 5.8 mph - N/A   Clear
4:35 PM 44.6 °F 41.4 °F 15.8 °F 31% 30.50 in 10.0 mi North 5.8 mph - N/A   Clear
4:55 PM 42.8 °F 40.1 °F 17.6 °F 36% 30.50 in 10.0 mi NNE 4.6 mph - N/A   Clear
5:15 PM 42.8 °F 39.3 °F 17.6 °F 36% 30.50 in 10.0 mi North 5.8 mph - N/A   Clear
5:35 PM 39.2 °F 35.9 °F 17.6 °F 42% 30.49 in 10.0 mi North 4.6 mph - N/A   Clear
5:55 PM 39.2 °F 37.0 °F 17.6 °F 42% 30.49 in 10.0 mi North 3.5 mph - N/A   Clear
6:15 PM 35.6 °F - 19.4 °F 52% 30.49 in 10.0 mi Calm Calm - N/A   Clear
6:35 PM 33.8 °F - 19.4 °F 56% 30.49 in 10.0 mi Calm Calm - N/A   Clear
6:55 PM 33.8 °F - 19.4 °F 56% 30.49 in 10.0 mi Calm Calm - N/A   Clear
7:15 PM 33.8 °F - 21.2 °F 60% 30.50 in 10.0 mi Calm Calm - N/A   Clear
7:35 PM 28.4 °F - 19.4 °F 69% 30.50 in 10.0 mi Calm Calm - N/A   Clear
7:55 PM 28.4 °F - 19.4 °F 69% 30.49 in 10.0 mi Calm Calm - N/A   Clear
8:15 PM 28.4 °F - 19.4 °F 69% 30.49 in 10.0 mi Calm Calm - N/A   Clear
8:35 PM 26.6 °F - 19.4 °F 74% 30.50 in 10.0 mi Calm Calm - N/A   Clear
8:55 PM 26.6 °F - 19.4 °F 74% 30.49 in 10.0 mi Calm Calm - N/A   Clear
9:15 PM 26.6 °F - 19.4 °F 74% 30.48 in 2.0 mi Calm Calm - N/A   Clear
9:35 PM 24.8 °F - 19.4 °F 80% 30.49 in 2.5 mi Calm Calm - N/A   Clear
9:55 PM 24.8 °F - 19.4 °F 80% 30.48 in 2.5 mi Calm Calm - N/A   Clear
10:15 PM 24.8 °F - 19.4 °F 80% 30.47 in 5.0 mi Calm Calm - N/A   Clear
10:35 PM 24.8 °F - 19.4 °F 80% 30.47 in 3.0 mi Calm Calm - N/A   Clear
10:55 PM 24.8 °F - 19.4 °F 80% 30.47 in 9.0 mi Calm Calm - N/A   Clear
11:15 PM 24.8 °F - 19.4 °F 80% 30.47 in 4.0 mi Calm Calm - N/A   Clear
11:35 PM 21.2 °F - 19.4 °F 93% 30.46 in 10.0 mi Calm Calm - N/A   Clear
11:55 PM 23.0 °F - 19.4 °F 86% 30.45 in 5.0 mi Calm Calm - N/A   Clear